Flag for Dominican Republic Weather past 2 weeks in Punta Cana, Dominican Republic

Now
88 °F

Passing clouds.


Feels Like: 96 °F
Forecast: 78 / 86 °F
Wind: 9 mph from South

Location: Punta Cana

Current Time: Jul 31, 2014 at 3:48:15 PM

Latest Report: Jul 31, 2014 at 3:00 PM


Visibility: N/A

Pressure: 29.98 "Hg

Humidity: 62%

Dew point: 73 °F

Location of Punta CanaLocation

Historic Weather in Punta Cana — Graph

°F

Punta Cana temperature yesterday

Maximum temperature yesterday: 88 °F (at 12:00 PM)
Minimum temperature yesterday: 73 °F (at 3:00 AM)
Average temperature yesterday: 81 °F

Past Weeks' High & Low Weather Summary

 TemperatureHumidityPressure
High90 °F (Jul 24, 1:00 PM)100% (Jul 19, 4:00 AM)30.12 "Hg (Jul 19, 4:00 AM)
Low73 °F (Jul 19, 4:00 AM)59% (Jul 31, 1:00 PM)29.98 "Hg (Jul 29, 5:00 PM)
Average83 °F78%30.05 "Hg
* Reported Jul 16 2:00 PM — Jul 31 2:00 PM, Punta Cana, Weather by CustomWeather, © 2014

Note: Actual official high and low records may vary slightly from our data, if they occured in-between our weather recording intervals... More about our weather records

Advertising

Punta Cana weather history for previous 24 hours

 ConditionsComfort  
Time TempWeatherWind HumidityBarometerVisibility
2:00 PM
Jul 31
88 °FPassing clouds.9 mph59%29.98 "HgN/A
1:00 PM90 °FPassing clouds.9 mph59%29.98 "HgN/A
12:00 PM88 °FPassing clouds.12 mph62%30.01 "HgN/A
11:00 AM88 °FPassing clouds.12 mph62%30.01 "HgN/A
10:00 AM86 °FPassing clouds.7 mph66%30.01 "HgN/A
9:00 AM84 °FScattered clouds.7 mph70%30.01 "HgN/A
8:00 AM81 °FScattered clouds.No wind84%30.01 "HgN/A
7:00 AM75 °FScattered clouds.No wind94%29.98 "HgN/A
6:00 AM75 °FPassing clouds.No wind94%29.98 "HgN/A
5:00 AM75 °FPassing clouds.No wind94%29.98 "HgN/A
4:00 AM77 °FPassing clouds.No wind89%29.98 "HgN/A
3:00 AM79 °FPassing clouds.No wind89%29.98 "HgN/A
2:00 AM79 °FPassing clouds.3 mph84%29.98 "HgN/A
1:00 AM79 °FPassing clouds.3 mph89%30.01 "HgN/A
12:00 AM79 °FPassing clouds.3 mph84%30.04 "HgN/A
11:00 PM
Jul 30
79 °FPassing clouds.5 mph89%30.04 "HgN/A
10:00 PM79 °FPassing clouds.5 mph89%30.04 "HgN/A
9:00 PM79 °FPassing clouds.5 mph84%30.01 "HgN/A
8:00 PM81 °FPassing clouds.5 mph79%30.01 "HgN/A
7:00 PM82 °FScattered clouds.5 mph74%29.98 "HgN/A
6:00 PM84 °FScattered clouds.7 mph70%29.98 "HgN/A
5:00 PM84 °FScattered clouds.9 mph70%29.98 "HgN/A
4:00 PM84 °FScattered clouds.8 mph74%30.01 "HgN/A
3:00 PM88 °FScattered clouds.9 mph66%30.01 "HgN/A
Weather by CustomWeather, © 2014

See weather overviewHow to use our weather pages